Flag for U.S.A. Weather past 2 weeks in Stamford, Connecticut, U.S.A.

Now
72 °F

Clear.


Feels Like: 74 °F
Forecast: 70 / 85 °F
Wind: 5 mph from West

Location: Danbury Municipal Airport

Current Time: Jul 23, 2014 at 4:59:36 AM

Latest Report: Jul 23, 2014 at 3:53 AM


Visibility: 10 mi

Pressure: 29.99 "Hg

Humidity: 73%

Dew point: 63 °F

Location of StamfordLocation

Historic Weather in Stamford — Graph

°F

Stamford temperature yesterday

Maximum temperature yesterday: 83 °F (at 12:53 PM)
Minimum temperature yesterday: 62 °F (at 3:53 AM)
Average temperature yesterday: 71 °F

Past Weeks' High & Low Weather Summary

 TemperatureHumidityPressure
High88 °F (Jul 8, 2:53 PM)96% (Jul 8, 4:53 AM)30.28 "Hg (Jul 8, 4:53 AM)
Low54 °F (Jul 18, 4:53 AM)33% (Jul 18, 4:53 PM)29.67 "Hg (Jul 8, 10:53 PM)
Average71 °F71%30.04 "Hg
* Reported Jul 8 1:53 AM — Jul 23 1:53 AM, Stamford, Weather by CustomWeather, © 2014

Note: Actual official high and low records may vary slightly from our data, if they occured in-between our weather recording intervals... More about our weather records

Advertising

Stamford weather history for previous 24 hours

 ConditionsComfort  
Time TempWeatherWind HumidityBarometerVisibility
1:53 AM
Jul 23
72 °FClear.7 mph76%30.02 "Hg10 mi
12:53 AM73 °FClear.5 mph74%30.03 "Hg10 mi
11:53 PM
Jul 22
72 °FClear.5 mph76%30.03 "Hg10 mi
10:53 PM73 °FClear.No wind74%30.05 "Hg10 mi
9:53 PM74 °FClear.5 mph71%30.06 "Hg10 mi
8:53 PM75 °FSunny.10 mph69%30.06 "Hg10 mi
7:53 PM78 °FSunny.10 mph64%30.07 "Hg10 mi
12:53 PM83 °FPartly sunny.8 mph57%30.13 "Hg10 mi
11:53 AM82 °FPassing clouds.10 mph58%30.15 "Hg10 mi
10:53 AM80 °FSunny.8 mph64%30.15 "Hg10 mi
9:53 AM77 °FSunny.8 mph66%30.16 "Hg10 mi
8:53 AM74 °FSunny.7 mph71%30.17 "Hg10 mi
7:53 AM71 °FSunny.7 mph78%30.18 "Hg9 mi
6:53 AM66 °FSunny.No wind87%30.17 "Hg7 mi
5:53 AM63 °FFog.No wind90%30.17 "Hg6 mi
4:53 AM63 °FClear.No wind87%30.17 "Hg9 mi
Weather by CustomWeather, © 2014

See weather overviewHow to use our weather pages